Regional Weather Roundup
Issued by NWS Upton, NY

Current Version | Previous Version | Graphics & Text | Print | Product List | Glossary Off
Versions: 1 2 3 4 5 6 7 8 9 10 11 12 13 14 15 16 17 18 19 20 21 22 23 24 25 26 27

000
ASUS41 KOKX 171305
RWROKX
REGIONAL WEATHER ROUNDUP
NATIONAL WEATHER SERVICE NEW YORK NY
900 AM EDT THU APR 17 2014

NOTE: "FAIR" INDICATES FEW OR NO CLOUDS BELOW 12,000 FEET WITH NO
SIGNIFICANT WEATHER AND/OR OBSTRUCTIONS TO VISIBILITY.

NYZ071-072-176-178-NJZ106-104-171400-
NEW YORK CITY METRO AREA


CITY           SKY/WX    TMP DP  RH WIND       PRES   REMARKS
CENTRAL PARK   SUNNY     38  20  48 NE13G22   30.74R WCI  30
LAGUARDIA APRT MOSUNNY   39  21  48 NE15      30.72R WCI  31
KENNEDY INTL   MOSUNNY   41  20  43 E15       30.73R
NEWARK/LIBERTY MOSUNNY   40  20  44 NE8       30.72R WCI  34
TETERBORO      SUNNY     40  19  43 E9        30.72R WCI  34
$$

NYZ177-179-078>081-171400-
LONG ISLAND NEW YORK

CITY           SKY/WX    TMP DP  RH WIND       PRES   REMARKS
FARMINGDALE    SUNNY     39  24  55 E12G21    30.71R WCI  32
ISLIP          MOSUNNY   40  23  50 E15       30.69S WCI  32
SHIRLEY        SUNNY     39  25  57 VRB7G20   30.72R WCI  34
WESTHAMPTON    SUNNY     40  23  50 E15       30.72R WCI  32
MONTAUK POINT    N/A     39  26  59 NE12G22   30.74R WCI  32
$$

NYZ052-065-067-171400-
HUDSON VALLEY

CITY           SKY/WX    TMP DP  RH WIND       PRES   REMARKS
WHITE PLAINS   SUNNY     37  16  42 E10       30.70R WCI  30
NEWBURGH       SUNNY     36  19  51 E14       30.72R WCI  27
MONTGOMERY     SUNNY     36  19  50 E12       30.72R WCI  28
POUGHKEEPSIE   SUNNY     38  17  42 NE7       30.73R WCI  33
ALBANY         PTSUNNY   33  21  61 CALM      30.76R
$$

NJZ001-105-106-008-010-013-015-019>022-104-171400-
NEW JERSEY

CITY           SKY/WX    TMP DP  RH WIND       PRES   REMARKS
NEWARK/LIBERTY MOSUNNY   40  20  44 NE8       30.72R WCI  34
TETERBORO      SUNNY     40  19  43 E9        30.72R WCI  34
CALDWELL       SUNNY     38  17  42 E9        30.72R WCI  31
MORRISTOWN     MOSUNNY   39  18  41 E9G17     30.72R WCI  33
SOMERVILLE     SUNNY     40  22  48 E7        30.69R
LINDEN         FAIR      42  20  40 E13G18    30.73R
SUSSEX           N/A     38  21  50 NE6       30.70R WCI  33
ANDOVER          N/A     37  16  42 VRB6      30.69R WCI  32
TRENTON        SUNNY     41  25  53 E14       30.68R
MILLVILLE      MOSUNNY   43  31  62 E14G22    30.66R
ATLANTIC CITY  MOSUNNY   42  29  59 E18G29    30.67R
WRIGHTSTOWN    MOSUNNY   42  26  53 E15       30.66R
TOMS RIVER     SUNNY     43  27  52 E8        30.69R
BELMAR         SUNNY     41  21  45 E18       30.69R
$$

PAZ047>061-062-071-171400-
EASTERN PENNSYLVANIA

CITY           SKY/WX    TMP DP  RH WIND       PRES   REMARKS
PHILADELPHIA   MOSUNNY   44  28  53 E10       30.69R
ALLENTOWN      SUNNY     39  21  48 E9        30.68R WCI  33
SCRANTON       SUNNY     38  16  40 SE8       30.64R WCI  32
$$

CTZ002-004>006-009-010-012-RIZ004-006-007-MAZ004-011-015-171400-
SOUTHERN NEW ENGLAND
 IN CT

CITY           SKY/WX    TMP DP  RH WIND       PRES   REMARKS
BRADLEY INTL   MOSUNNY   35  18  49 NE15      30.76R WCI  25
HARTFORD       SUNNY     36  20  52 N9        30.76R WCI  29
DANBURY        SUNNY     34  19  54 E14       30.72S WCI  25
WTRBRY/OXFORD  NOT AVBL
BRIDGEPORT     SUNNY     38  21  50 E15       30.73R WCI  29
MERIDEN        SUNNY     36  20  52 NE8       30.75R WCI  30
NEW HAVEN      MOSUNNY   38  20  48 NE14      30.73R WCI  30
CHESTER        FAIR      36  21  55 E12       30.72R WCI  27
GROTON         SUNNY     39  24  55 NE13G21   30.73R WCI  31
WILLIMANTIC    SUNNY     36  20  52 NE15G21   30.75R WCI  27

 IN RI

CITY           SKY/WX    TMP DP  RH WIND       PRES   REMARKS
PROVIDENCE     MOSUNNY   38  21  50 NE17      30.76R WCI  28
BLOCK ISLAND   MOSUNNY   37  25  60 NE18G26   30.72R WCI  27
WESTERLY       SUNNY     38  22  52 NE12G18   30.74R WCI  30

 IN MA

CITY           SKY/WX    TMP DP  RH WIND       PRES   REMARKS
BOSTON         MOSUNNY   36  22  56 NE16G24   30.80R WCI  26
WORCESTER      SUNNY     30  18  60 NE12G18   30.72R WCI  20
WESTFIELD      SUNNY     34  18  52 NE12      30.76S WCI  25
PROVINCETOWN   MOSUNNY   37  25  60 MISG      30.77R
NANTUCKET      CLOUDY    37  25  61 NE22G30   30.71R WCI  26
$$

ANZ330-335-338-340-345-350-353-355-171400-
COASTAL MARINE OBSERVATIONS


STATION/POSITION TIME  SKY/WX   TEMP    WIND        PRES    VSBY  WAVE
                                AIR SEA DIR/SP/G                  HT/PER
                 (UTC)          (F)     (DEG/KT/KT) (MB)    (MI)  (FT/S)
NY HARB ENTRANCE 1300            38 42   60/ 17/ 21 1039.2
4S FIRE IS       1200               43                N/A           6/ 6
23SW MTP         1200            37 42   50/ 23/ 27 1038.2          7/ 6
HUDSON CANYON    1200            40 44   50/ 23/ 29 1036.5          9/ 7
EXECUTION ROCKS  1300            38 42   60/ 17/ 23   N/A
WESTERN LI SOUND 1300            36      70/ 16/ 19   N/A           3/ 4
CENTRAL LI SOUND 1200            36 41   70/ 17/ 21   N/A           3/ 4
EASTERN LI SOUND NOT AVBL
ROBBINS REEF     1300            37      70/ 13/ 16   N/A
$$


>>>>>>>>>>>>>>>>>>>>>>>>>>>> KEY <<<<<<<<<<<<<<<<<<<<<<<<<<<
>                                                          <
>     SKY/WX - SKY CONDITION/PRESENT WEATHER               <
>     TMP    - TEMPERATURE IN FAHRENHEIT                   <
>     DP     - DEWPOINT IN FAHRENHEIT                      <
>     RH     - RELATIVE HUMIDITY IN PERCENT                <
>     WIND   - DIRECTION AND SPEED IN MPH                  <
>     PRES   - MEAN SEA LEVEL PRESSURE IN INCHES OF HG     <
>     WCI    - WIND CHILL INDEX                            <
>     VSB    - VISIBILITY IN MILES                         <
>     HX     - HEAT INDEX                                  <
>     TC     - TEMPERATURE IN CELSIUS                      <
>     VRB    - VARIABLE WIND DIRECTION                     <
>                                                          <
>>>>>>>>>>>>>>>>>>>>>>>>>>>> KEY <<<<<<<<<<<<<<<<<<<<<<<<<<<





USA.gov is the U.S. government's official web portal to all federal, state and local government web resources and services.